Tracking 19146 objects as of 23-Apr-2018
HD Live streaming from Space Station
objects crossing your sky now

IRIDIUM 33 DEB

Track IRIDIUM 33 DEB now!
10-day predictions


NORAD ID: 34150
Int'l Code: 1997-051ED
Perigee: 656.6 km
Apogee: 772.1 km
Inclination: 86.5 °
Period: 98.9 minutes
Semi major axis: 7085 km
RCS: 0.0227 m2 (small)
Launch date: September 14, 1997
Source: United States (US)
Launch site: TYURATAM MISSILE AND SPACE COMPLEX (TTMTR)

Note: This is SATELLITE DEBRIS
aabbcc
Your satellite tracking list
Your tracking list is empty




NASA's NSSDC Master Catalog

Two Line Element Set (TLE):
1 34150U 97051ED  18112.72747476  .00002612  00000-0  56736-3 0  9993
2 34150  86.4855 195.9471 0081462 313.5507 171.5138 14.55661902481325
Source of the keplerian elements: AFSPC